WX9WTF Weather Reports


Display with metric or nautical units.
time (UTC)temp
F
wind
direction
speed
MPH
gust
MPH
rain 1hr
in
rain 24hr
in
rain mn
in
humidity
%
barometer
mb
20260507144746 59 231 2.0 4.0 0.00 0.00 0.00 71 1017.9
20260507144244 59 240 4.0 7.0 0.00 0.00 0.00 65 1018.1
20260507143740 59 161 4.0 5.0 0.00 0.00 0.00 68 1017.9
20260507143238 60 266 1.0 4.0 0.00 0.00 0.00 68 1017.8
20260507142734 59 274 0.0 3.0 0.00 0.00 0.00 68 1017.9
20260507142230 59 88 3.0 4.0 0.00 0.00 0.00 70 1017.9
20260507141727 58 225 1.0 4.0 0.00 0.00 0.00 69 1018.2
20260507141224 57 16 2.0 9.0 0.00 0.00 0.00 71 1018.2
20260507140720 59 192 1.0 3.0 0.00 0.00 0.00 69 1018.1
20260507140218 58 175 2.0 3.0 0.00 0.00 0.00 69 1018.1
20260507135714 58 138 2.0 3.0 0.00 0.00 0.00 68 1018.2
20260507135212 57 119 0.0 3.0 0.00 0.00 0.00 71 1018.1
20260507134708 57 157 2.0 4.0 0.00 0.00 0.00 68 1018.1
20260507134204 57 40 0.0 3.0 0.00 0.00 0.00 70 1018.2
20260507133700 57 280 0.0 2.0 0.00 0.00 0.00 71 1017.9
20260507133158 56 115 1.0 3.0 0.00 0.00 0.00 71 1018.2
20260507132655 56 333 2.0 2.0 0.00 0.00 0.00 72 1018.1
20260507132151 55 147 1.0 2.0 0.00 0.00 0.00 74 1018.1
20260507131648 55 156 2.0 3.0 0.00 0.00 0.00 71 1018.2
20260507131145 54 154 0.0 3.0 0.00 0.00 0.00 74 1018.2
20260507130642 53 129 3.0 3.0 0.00 0.00 0.00 74 1018.3
20260507130140 53 209 0.0 2.0 0.00 0.00 0.00 76 1018.4
20260507125638 52 86 2.0 2.0 0.00 0.00 0.00 76 1018.4
20260507125136 51 154 0.0 2.0 0.00 0.00 0.00 78 1018.5
20260507124632 50 170 1.0 2.0 0.00 0.00 0.00 78 1018.4
20260507124130 50 121 0.0 2.0 0.00 0.00 0.00 79 1018.3
20260507123628 50 246 0.0 2.0 0.00 0.00 0.00 79 1018.3
20260507123124 49 123 0.0 2.0 0.00 0.00 0.00 79 1018.3
20260507122620 48 147 1.0 2.0 0.00 0.00 0.00 80 1018.5
20260507122116 48 127 0.0 3.0 0.00 0.00 0.00 82 1018.4
20260507121612 47 243 1.0 3.0 0.00 0.00 0.00 82 1018.5
20260507121108 46 111 0.0 3.0 0.00 0.00 0.00 83 1018.5
20260507120604 46 73 1.0 2.0 0.00 0.00 0.00 85 1018.3
20260507120101 45 127 2.0 2.0 0.00 0.00 0.00 85 1018.2
20260507115557 44 143 0.0 1.0 0.00 0.00 0.00 87 1018.2
20260507115053 44 89 0.0 2.0 0.00 0.00 0.00 87 1018.2
20260507114549 43 73 0.0 1.0 0.00 0.00 0.00 88 1018.1
20260507114046 43 80 1.0 1.0 0.00 0.00 0.00 88 1018.1
20260507113543 43 127 2.0 2.0 0.00 0.00 0.00 87 1017.9
20260507113041 42 122 0.0 2.0 0.00 0.00 0.00 87 1018.1
20260507112538 43 117 1.0 2.0 0.00 0.00 0.00 86 1017.9
20260507112035 43 89 0.0 2.0 0.00 0.00 0.00 85 1017.8
20260507111532 43 124 1.0 2.0 0.00 0.00 0.00 85 1017.8
20260507111029 43 124 2.0 2.0 0.00 0.00 0.00 86 1017.7
20260507110525 43 146 1.0 2.0 0.00 0.00 0.00 86 1017.8
20260507110021 43 127 2.0 2.0 0.00 0.00 0.00 87 1017.8
20260507105519 43 130 1.0 2.0 0.00 0.00 0.00 87 1017.8
20260507105009 42 73 0.0 2.0 0.00 0.00 0.00 86 1017.9
20260507104507 43 152 1.0 2.0 0.00 0.00 0.00 86 1018.2
20260507104002 43 154 0.0 2.0 0.00 0.00 0.00 85 1017.8
20260507103459 43 127 2.0 2.0 0.00 0.00 0.00 85 1017.9
20260507102955 43 116 1.0 2.0 0.00 0.00 0.00 86 1017.6
20260507102452 43 118 1.0 2.0 0.00 0.00 0.00 86 1017.7
20260507101948 42 108 1.0 2.0 0.00 0.00 0.00 87 1017.9
20260507101443 42 122 1.0 2.0 0.00 0.00 0.00 87 1017.9
20260507100940 42 123 2.0 3.0 0.00 0.00 0.00 86 1018.1
20260507100437 42 105 1.0 2.0 0.00 0.00 0.00 86 1017.9
20260507095935 42 141 1.0 2.0 0.00 0.00 0.00 85 1017.9
20260507095433 42 89 0.0 2.0 0.00 0.00 0.00 85 1017.9
20260507094925 42 112 1.0 2.0 0.00 0.00 0.00 85 1018.1
20260507094421 42 127 1.0 2.0 0.00 0.00 0.00 84 1018.1
20260507093918 43 96 1.0 1.0 0.00 0.00 0.00 84 1018.1
20260507093415 43 133 0.0 2.0 0.00 0.00 0.00 83 1018.1
20260507092913 43 124 0.0 2.0 0.00 0.00 0.00 82 1018.3
20260507092409 44 44 0.0 1.0 0.00 0.00 0.00 82 1018.3
20260507091906 44 122 1.0 1.0 0.00 0.00 0.00 83 1018.1
20260507091402 44 115 2.0 2.0 0.00 0.00 0.00 82 1018.2
20260507090859 44 99 1.0 2.0 0.00 0.00 0.00 82 1018.2
20260507090355 43 140 2.0 2.0 0.00 0.00 0.00 82 1018.4
20260507085852 43 80 0.0 1.0 0.00 0.00 0.00 84 1017.9
20260507085349 42 126 0.0 1.0 0.00 0.00 0.00 85 1018.2
20260507084846 42 84 1.0 2.0 0.00 0.00 0.00 84 1017.9
20260507084342 43 68 1.0 2.0 0.00 0.00 0.00 83 1018.3
20260507083840 43 119 0.0 1.0 0.00 0.00 0.00 83 1018.3
20260507083336 43 76 0.0 2.0 0.00 0.00 0.00 82 1018.3
20260507082833 43 89 0.0 1.0 0.00 0.00 0.00 83 1018.1
20260507082328 42 66 0.0 1.0 0.00 0.00 0.00 85 1018.3
20260507081825 42 75 0.0 1.0 0.00 0.00 0.00 85 1018.2
20260507081320 43 111 0.0 2.0 0.00 0.00 0.00 84 1018.1
20260507080818 43 93 1.0 2.0 0.00 0.00 0.00 83 1018.2
20260507080314 43 97 2.0 2.0 0.00 0.00 0.00 81 1018.2
20260507075809 43 89 1.0 2.0 0.00 0.00 0.00 80 1018.1
20260507075307 44 83 2.0 2.0 0.00 0.00 0.00 79 1018.3
20260507074802 44 85 1.0 2.0 0.00 0.00 0.00 78 1018.1
20260507074300 44 89 2.0 2.0 0.00 0.00 0.00 78 1018.3
20260507073757 45 88 2.0 2.0 0.00 0.00 0.00 77 1018.3
20260507073253 45 111 1.0 2.0 0.00 0.00 0.00 77 1018.4
20260507072751 46 92 0.0 2.0 0.00 0.00 0.00 75 1018.3
20260507072249 46 74 1.0 1.0 0.00 0.00 0.00 75 1018.4
20260507071746 46 89 0.0 2.0 0.00 0.00 0.00 73 1018.4
20260507071243 46 147 0.0 2.0 0.00 0.00 0.00 74 1018.4
20260507070740 46 150 0.0 2.0 0.00 0.00 0.00 75 1018.6
20260507070237 46 140 1.0 2.0 0.00 0.00 0.00 77 1018.6
20260507065733 46 89 0.0 1.0 0.00 0.00 0.00 80 1018.7
20260507065230 45 110 1.0 2.0 0.00 0.00 0.00 81 1018.7
20260507064727 44 150 0.0 2.0 0.00 0.00 0.00 82 1018.7
20260507064226 44 80 0.0 1.0 0.00 0.00 0.00 87 1018.9
20260507063723 44 38 1.0 2.0 0.00 0.00 0.00 88 1018.8
20260507063220 44 83 1.0 2.0 0.00 0.00 0.00 89 1019.0
20260507062716 44 79 2.0 2.0 0.00 0.00 0.00 90 1018.7
20260507062214 43 85 2.0 2.0 0.00 0.00 0.00 90 1018.9
20260507061712 43 88 2.0 2.0 0.00 0.00 0.00 92 1019.0
20260507061210 43 84 2.0 2.0 0.00 0.00 0.00 93 1018.8
20260507060708 43 84 2.0 2.0 0.00 0.00 0.00 93 1018.8
20260507060204 42 87 2.0 2.0 0.00 0.00 0.00 94 1018.9
20260507055700 42 92 2.0 2.0 0.00 0.00 0.00 94 1019.0
20260507055156 41 81 1.0 2.0 0.00 0.00 0.00 94 1018.8
20260507054651 41 70 2.0 2.0 0.00 0.00 0.00 94 1018.9
20260507054149 41 64 1.0 2.0 0.00 0.00 0.00 94 1018.9
20260507053646 41 47 1.0 2.0 0.00 0.00 0.00 95 1018.9
20260507053144 41 59 1.0 2.0 0.00 0.00 0.00 95 1018.9
20260507052642 41 55 0.0 1.0 0.00 0.00 0.00 95 1018.8
20260507052138 41 55 0.0 0.0 0.00 0.00 0.00 95 1018.7
20260507051636 40 321 0.0 1.0 0.00 0.00 0.00 95 1018.8
20260507051127 39 45 1.0 1.0 0.00 0.00 0.00 94 1018.8
20260507050624 39 89 0.0 1.0 0.00 0.00 0.00 93 1018.8
20260507050121 39 73 1.0 2.0 0.00 0.02 0.02 93 1018.8
20260507045617 40 67 1.0 2.0 0.00 0.02 0.02 93 1018.8
20260507045109 41 55 0.0 1.0 0.00 0.02 0.02 93 1019.0
20260507044605 41 124 0.0 0.0 0.00 0.02 0.02 93 1019.0
20260507044102 41 49 0.0 0.0 0.00 0.02 0.02 92 1018.9
20260507043558 41 76 0.0 1.0 0.00 0.02 0.02 92 1018.8
20260507043055 42 77 2.0 2.0 0.00 0.02 0.02 91 1018.7
20260507042551 42 84 2.0 3.0 0.00 0.02 0.02 91 1018.7
20260507042047 42 88 2.0 2.0 0.00 0.02 0.02 90 1018.7
20260507041544 41 84 2.0 2.0 0.00 0.02 0.02 88 1019.0
20260507041041 42 68 1.0 2.0 0.00 0.02 0.02 88 1019.2
20260507040537 42 64 0.0 2.0 0.00 0.02 0.02 88 1019.2
20260507040033 42 38 0.0 0.0 0.00 0.02 0.02 88 1019.0
20260507035529 42 67 0.0 1.0 0.00 0.02 0.02 88 1019.1
20260507035026 42 69 0.0 1.0 0.00 0.02 0.02 88 1019.2
20260507034523 42 58 0.0 2.0 0.00 0.02 0.02 87 1019.0
20260507034021 42 69 1.0 2.0 0.00 0.02 0.02 86 1019.0
20260507033519 42 54 0.0 1.0 0.00 0.02 0.02 85 1018.8
20260507033016 42 85 1.0 2.0 0.00 0.02 0.02 86 1018.9
20260507032513 42 78 1.0 1.0 0.00 0.02 0.02 86 1019.1
20260507032009 43 80 0.0 2.0 0.00 0.02 0.02 86 1018.9
20260507031505 43 60 0.0 0.0 0.00 0.02 0.02 85 1018.9
20260507031002 44 78 0.0 1.0 0.00 0.02 0.02 85 1019.0
20260507030459 44 122 0.0 1.0 0.00 0.02 0.02 84 1018.9
20260507025956 44 84 2.0 2.0 0.00 0.02 0.02 80 1018.9
20260507025453 44 73 2.0 2.0 0.00 0.02 0.02 78 1018.6
20260507024951 45 56 0.0 2.0 0.00 0.02 0.02 77 1018.7
20260507024448 45 55 0.0 1.0 0.00 0.02 0.02 77 1018.7
20260507023944 45 76 0.0 0.0 0.00 0.02 0.02 79 1018.8
20260507023441 46 55 0.0 0.0 0.00 0.02 0.02 77 1018.7
20260507022938 46 109 1.0 2.0 0.00 0.02 0.02 72 1018.5
20260507022436 47 63 2.0 2.0 0.00 0.02 0.02 70 1018.5
20260507021931 47 29 0.0 0.0 0.00 0.02 0.02 69 1018.5
20260507021426 47 113 0.0 1.0 0.00 0.02 0.02 72 1018.5
20260507020924 48 55 0.0 1.0 0.00 0.02 0.02 67 1018.4
20260507020421 48 326 0.0 0.0 0.00 0.02 0.02 65 1018.5
20260507015918 48 135 0.0 0.0 0.00 0.02 0.02 65 1018.6
20260507015416 48 81 0.0 2.0 0.00 0.02 0.02 61 1018.4
20260507014913 49 353 0.0 1.0 0.00 0.02 0.02 60 1018.4
20260507014409 50 22 0.0 1.0 0.00 0.02 0.02 62 1018.4
20260507013905 50 22 0.0 1.0 0.00 0.02 0.02 62 1018.2
20260507013403 51 32 0.0 1.0 0.00 0.02 0.02 54 1018.2
20260507012900 51 329 0.0 0.0 0.00 0.02 0.02 52 1018.1
20260507012355 52 329 0.0 0.0 0.00 0.02 0.02 53 1018.1
20260507011852 52 49 0.0 0.0 0.00 0.02 0.02 51 1017.8
20260507011349 53 59 2.0 2.0 0.00 0.02 0.02 47 1017.7
20260507010843 54 74 0.0 2.0 0.00 0.02 0.02 44 1017.6
20260507010340 55 334 0.0 3.0 0.00 0.02 0.02 43 1017.8
20260507005837 56 14 1.0 4.0 0.00 0.02 0.02 40 1017.7
20260507005334 56 341 3.0 4.0 0.00 0.02 0.02 39 1017.7
20260507004831 57 2 6.0 7.0 0.00 0.02 0.02 38 1017.7
20260507004328 57 19 3.0 4.0 0.00 0.02 0.02 38 1017.7
20260507003825 58 332 2.0 6.0 0.00 0.02 0.02 38 1017.7
20260507003320 59 328 7.0 8.0 0.00 0.02 0.02 36 1017.8
20260507002815 59 13 2.0 5.0 0.00 0.02 0.02 37 1017.6
20260507002311 59 45 4.0 5.0 0.00 0.02 0.02 35 1017.8
20260507001809 59 7 2.0 5.0 0.00 0.02 0.02 38 1017.7
20260507001306 58 50 5.0 5.0 0.00 0.02 0.02 37 1017.5
20260507000802 58 38 4.0 5.0 0.00 0.02 0.02 37 1017.5
20260507000259 58 356 4.0 6.0 0.00 0.02 0.02 36 1017.6
20260506235749 59 347 8.0 13.0 0.00 0.02 0.02 35 1017.5
20260506235244 59 0 4.0 11.0 0.00 0.02 0.02 36 1017.7
20260506234742 59 359 3.0 9.0 0.00 0.02 0.02 36 1017.7
20260506234239 59 324 5.0 7.0 0.00 0.02 0.02 36 1017.8
20260506233736 59 45 3.0 5.0 0.00 0.02 0.02 38 1017.7
20260506233232 59 0 4.0 10.0 0.00 0.02 0.02 35 1017.8
20260506232729 59 340 6.0 8.0 0.00 0.02 0.02 35 1017.6
20260506232224 60 0 3.0 6.0 0.00 0.02 0.02 40 1017.6
20260506231722 60 10 6.0 10.0 0.00 0.02 0.02 38 1017.6
20260506231220 60 296 6.0 10.0 0.00 0.02 0.02 36 1017.7
20260506230717 61 358 6.0 8.0 0.00 0.02 0.02 36 1017.5
20260506230214 61 345 3.0 10.0 0.00 0.02 0.02 34 1017.6
20260506225710 61 10 4.0 6.0 0.00 0.02 0.02 36 1017.7
20260506225207 61 21 4.0 10.0 0.00 0.02 0.02 35 1017.6
20260506224703 61 17 2.0 6.0 0.00 0.02 0.02 37 1017.7
20260506224201 61 281 3.0 12.0 0.00 0.02 0.02 35 1017.7
20260506223657 62 352 4.0 4.0 0.00 0.02 0.02 36 1017.6
20260506223153 61 16 1.0 8.0 0.00 0.02 0.02 38 1017.8
20260506222650 61 18 5.0 9.0 0.00 0.02 0.02 35 1017.4
20260506222145 61 54 3.0 5.0 0.00 0.02 0.02 36 1017.7
20260506221644 60 348 6.0 7.0 0.00 0.02 0.02 36 1017.6
20260506221141 61 23 5.0 6.0 0.00 0.02 0.02 37 1017.9
20260506220638 61 17 5.0 9.0 0.00 0.02 0.02 35 1017.8
20260506220133 61 340 4.0 6.0 0.00 0.02 0.02 34 1017.7
20260506215629 61 324 5.0 7.0 0.00 0.02 0.02 36 1017.8
20260506215125 61 19 1.0 8.0 0.00 0.02 0.02 35 1018.1
20260506214622 60 46 7.0 11.0 0.00 0.02 0.02 34 1017.9
20260506214119 60 261 2.0 11.0 0.00 0.02 0.02 39 1018.2
20260506213618 61 348 5.0 6.0 0.00 0.02 0.02 36 1018.4
20260506213114 60 40 8.0 12.0 0.00 0.02 0.02 35 1018.2
20260506212612 60 4 4.0 12.0 0.00 0.02 0.02 35 1018.3
20260506212106 61 92 4.0 8.0 0.00 0.02 0.02 33 1018.1
20260506211602 60 37 6.0 9.0 0.00 0.02 0.02 36 1018.4
20260506211100 60 356 8.0 14.0 0.00 0.02 0.02 36 1018.3
20260506210556 60 355 6.0 9.0 0.00 0.02 0.02 36 1018.2
20260506210053 60 275 9.0 11.0 0.00 0.02 0.02 36 1018.5
20260506205550 59 331 12.0 15.0 0.00 0.02 0.02 36 1018.6
20260506205044 59 288 3.0 16.0 0.00 0.02 0.02 37 1018.6
20260506204543 59 358 7.0 10.0 0.00 0.02 0.02 38 1018.7
20260506204039 59 358 12.0 15.0 0.00 0.02 0.02 35 1018.7
20260506203538 60 35 6.0 12.0 0.00 0.02 0.02 37 1019.0
20260506203034 59 4 5.0 6.0 0.00 0.02 0.02 35 1018.8
20260506202532 60 316 11.0 13.0 0.00 0.02 0.02 34 1019.0
20260506202028 59 344 7.0 11.0 0.00 0.02 0.02 35 1019.0
20260506201526 59 330 4.0 17.0 0.00 0.02 0.02 39 1018.9
20260506201022 59 12 4.0 10.0 0.00 0.02 0.02 39 1018.8
20260506200518 59 339 9.0 13.0 0.00 0.02 0.02 38 1019.1
20260506200015 59 9 7.0 11.0 0.00 0.02 0.02 38 1019.0
20260506195512 59 51 7.0 11.0 0.00 0.02 0.02 37 1019.1
20260506195009 59 19 5.0 10.0 0.00 0.02 0.02 40 1019.1
20260506194507 60 26 5.0 12.0 0.00 0.02 0.02 37 1019.3
20260506194002 59 33 4.0 10.0 0.00 0.02 0.02 36 1019.2
20260506193500 59 352 5.0 9.0 0.00 0.02 0.02 37 1019.3
20260506192956 58 4 3.0 11.0 0.00 0.02 0.02 39 1019.3
20260506192454 58 11 4.0 9.0 0.00 0.02 0.02 41 1019.2
20260506191950 58 298 6.0 8.0 0.00 0.02 0.02 47 1019.4
20260506191447 58 33 3.0 8.0 0.00 0.02 0.02 40 1019.5
20260506190943 57 306 5.0 15.0 0.00 0.02 0.02 36 1019.5
20260506190440 57 322 8.0 18.0 0.00 0.02 0.02 37 1019.4
20260506185936 59 356 7.0 11.0 0.00 0.02 0.02 41 1019.4
20260506185428 58 38 9.0 13.0 0.00 0.02 0.02 43 1019.7
20260506184925 57 348 3.0 13.0 0.00 0.02 0.02 43 1019.5
20260506184422 57 45 4.0 9.0 0.00 0.02 0.02 40 1019.5
20260506183919 56 0 3.0 4.0 0.00 0.02 0.02 44 1019.7
20260506183414 56 315 3.0 9.0 0.00 0.02 0.02 40 1019.6
20260506182912 57 350 4.0 8.0 0.00 0.02 0.02 41 1019.8
20260506182409 57 62 5.0 8.0 0.00 0.02 0.02 40 1019.7
20260506181906 57 38 5.0 9.0 0.00 0.02 0.02 41 1019.8
20260506181404 57 23 3.0 7.0 0.00 0.02 0.02 39 1019.8
20260506180900 56 0 0.0 6.0 0.00 0.02 0.02 41 1019.9
20260506180356 56 9 4.0 5.0 0.00 0.02 0.02 38 1019.9
20260506175853 55 320 4.0 8.0 0.00 0.02 0.02 40 1020.0
20260506175350 55 357 3.0 9.0 0.00 0.02 0.02 40 1020.0
20260506174847 55 347 2.0 6.0 0.00 0.02 0.02 38 1020.2
20260506174344 55 343 4.0 11.0 0.00 0.02 0.02 41 1020.3
20260506173842 55 312 7.0 14.0 0.00 0.02 0.02 40 1020.1
20260506173338 55 310 6.0 6.0 0.00 0.02 0.02 42 1020.2
20260506172836 56 335 8.0 9.0 0.00 0.02 0.02 41 1020.3
20260506172332 56 358 4.0 7.0 0.00 0.02 0.02 45 1020.4
20260506171830 56 341 5.0 7.0 0.00 0.02 0.02 42 1020.1
20260506171327 55 355 11.0 16.0 0.00 0.02 0.02 39 1020.2
20260506170825 56 328 3.0 13.0 0.00 0.02 0.02 42 1020.0
20260506170320 56 0 2.0 8.0 0.00 0.02 0.02 42 1020.1
20260506165819 55 357 7.0 15.0 0.00 0.02 0.02 39 1020.0
20260506165316 56 325 5.0 14.0 0.00 0.02 0.02 40 1020.1
20260506164808 56 265 3.0 15.0 0.00 0.02 0.02 41 1019.9
20260506164304 56 312 2.0 12.0 0.00 0.02 0.02 41 1020.0
20260506163801 57 30 7.0 8.0 0.00 0.02 0.02 46 1020.1
20260506163256 56 319 6.0 9.0 0.00 0.02 0.02 43 1019.9
20260506162752 57 41 9.0 10.0 0.00 0.02 0.02 45 1019.8
20260506162250 57 13 7.0 9.0 0.00 0.02 0.02 39 1019.7
20260506161747 58 325 5.0 7.0 0.00 0.02 0.02 45 1019.7
20260506161244 57 64 4.0 7.0 0.00 0.02 0.02 51 1019.6
20260506160742 56 32 4.0 11.0 0.00 0.02 0.02 44 1019.6
20260506160238 57 352 4.0 11.0 0.00 0.02 0.02 44 1019.5
20260506155737 56 358 6.0 11.0 0.00 0.02 0.02 43 1019.6
20260506155233 56 327 7.0 13.0 0.00 0.02 0.02 46 1019.4
20260506153341 56 330 16.0 17.0 0.00 0.02 0.02 43 1019.4
20260506152837 56 338 5.0 7.0 0.00 0.02 0.02 51 1019.3
20260506152335 55 352 6.0 13.0 0.00 0.02 0.02 46 1019.3
20260506151833 55 0 4.0 8.0 0.00 0.02 0.02 50 1019.3
20260506151330 55 40 6.0 12.0 0.00 0.02 0.02 51 1019.4
20260506150827 55 52 3.0 5.0 0.00 0.02 0.02 50 1019.3
20260506150324 54 339 4.0 5.0 0.00 0.02 0.02 52 1019.5
20260506145820 56 320 4.0 6.0 0.00 0.02 0.02 50 1019.4
20260506145316 55 75 2.0 2.0 0.00 0.02 0.02 53 1019.5